Weather History for KGRB - June, 2013

Change the Weather History Date:

Monday, June 17, 2013

  Actual Average Record
Temperature  
Mean Temperature 64 °F 65 °F  
Max Temperature 73 °F 76 °F 94 °F (1994)
Min Temperature 55 °F 55 °F 37 °F (1958)
Degree Days  
Heating Degree Days 1 3  
Month to date heating degree days 62 70  
Since 1 June heating degree days 62 70  
Since 1 July heating degree days 7704 7933  
Cooling Degree Days 0 3  
Month to date cooling degree days 22 33  
Year to date cooling degree days 60 51  
Since 1 June cooling degree days 22 33  
Growing Degree Days 14 (Base 50)    
Moisture  
Dew Point 57 °F    
Average Humidity 81    
Maximum Humidity 93    
Minimum Humidity 68    
Precipitation  
Precipitation 0.02 in 0.13 in 3.43 in (1894)
Month to date precipitation 2.10 2.23  
Year to date precipitation 15.87 11.88  
Snow  
Snow 0.00 in 0.00 in 0.00 in ()
Month to date snowfall 0.0 0.0  
Since 1 June snowfall 0.0 0.0  
Since 1 July snowfall 74.2 51.4  
Snow Depth 0.00 in    
Sea Level Pressure  
Sea Level Pressure 29.93 in    
Wind  
Wind Speed 10 mph (NE)    
Max Wind Speed 21 mph    
Max Gust Speed 24 mph    
Visibility 10 miles    
Events      
T = Trace of Precipitation, MM = Missing Value Source: NWS Daily Summary

Daily Weather History Graph

Daily Weather History Graph

Search for Another Location

Airport or City:

Trip Planner

Search our weather history database for the weather conditions in past years. The results will help you decide how hot, cold, wet, or windy it might be!

Date:

Astronomy

Jun. 17, 2013 Rise Set
Actual Time 5:07 AM CDT 8:39 PM CDT
Civil Twilight 4:30 AM CDT 9:16 PM CDT
Nautical Twilight 3:41 AM CDT 10:05 PM CDT
Astronomical Twilight 2:38 AM CDT 11:08 PM CDT
Moon 2:06 PM CDT (6/17) 12:56 AM CDT (6/17)
Length of Visible Light 16h 46m
Length of Day
15h 32m
First Quarter, 60% of the Moon is Illuminated
Jun 17
First Quarter
Jun 23
Full
Jun 29
Last Quarter
Jul 8
New
Jul 15
First Quarter

Hourly Weather History & Observations

Time (CDT) Temp. Dew Point Humidity Pressure Visibility Wind Dir Wind Speed Gust Speed Precip Events Conditions
12:53 AM 59.0 °F 55.9 °F 90% 29.88 in 10.0 mi Calm Calm - N/A   Partly Cloudy
1:53 AM 57.9 °F 55.0 °F 90% 29.89 in 10.0 mi WSW 5.8 mph - N/A   Clear
2:53 AM 55.9 °F 54.0 °F 93% 29.89 in 10.0 mi NNW 3.5 mph - N/A   Clear
3:53 AM 57.0 °F 54.0 °F 89% 29.91 in 10.0 mi Calm Calm - N/A   Partly Cloudy
4:53 AM 55.0 °F 53.1 °F 93% 29.88 in 10.0 mi South 4.6 mph - N/A   Clear
5:53 AM 57.0 °F 54.0 °F 89% 29.89 in 10.0 mi Calm Calm - N/A   Clear
6:53 AM 62.1 °F 57.0 °F 84% 29.89 in 10.0 mi ENE 4.6 mph - N/A   Clear
7:53 AM 64.0 °F 57.0 °F 78% 29.90 in 10.0 mi NE 11.5 mph - N/A   Unknown
8:53 AM 66.9 °F 57.9 °F 73% 29.92 in 10.0 mi East 9.2 mph - N/A   Unknown
9:53 AM 71.1 °F 60.1 °F 68% 29.91 in 10.0 mi North 6.9 mph - N/A   Partly Cloudy
10:53 AM 72.0 °F 62.1 °F 71% 29.91 in 10.0 mi NE 11.5 mph - N/A   Clear
11:53 AM 73.0 °F 62.1 °F 68% 29.91 in 10.0 mi NNE 13.8 mph - N/A   Clear
12:53 PM 72.0 °F 61.0 °F 68% 29.92 in 10.0 mi NNE 15.0 mph 20.7 mph N/A   Clear
1:53 PM 72.0 °F 60.1 °F 66% 29.92 in 10.0 mi NE 13.8 mph - N/A   Clear
2:53 PM 66.0 °F 57.9 °F 75% 29.93 in 10.0 mi NE 17.3 mph - N/A   Clear
3:53 PM 64.9 °F 57.0 °F 75% 29.95 in 10.0 mi NE 13.8 mph - 0.00 in   Overcast
4:53 PM 62.1 °F 57.9 °F 86% 29.96 in 10.0 mi NE 13.8 mph - 0.01 in   Scattered Clouds
5:53 PM 64.9 °F 59.0 °F 81% 29.94 in 10.0 mi NNE 11.5 mph - 0.01 in   Partly Cloudy
6:38 PM 64.9 °F 57.9 °F 78% 29.95 in 10.0 mi NNE 13.8 mph - N/A   Mostly Cloudy
6:53 PM 64.0 °F 57.0 °F 78% 29.96 in 10.0 mi NE 11.5 mph - N/A   Scattered Clouds
7:53 PM 62.1 °F 55.0 °F 78% 29.97 in 10.0 mi NE 11.5 mph - N/A   Scattered Clouds
8:53 PM 60.1 °F 54.0 °F 80% 29.99 in 10.0 mi NE 5.8 mph - N/A   Clear
9:53 PM 59.0 °F 54.0 °F 83% 30.01 in 10.0 mi NE 5.8 mph - N/A   Scattered Clouds
10:53 PM 57.9 °F 52.0 °F 81% 30.03 in 10.0 mi NE 9.2 mph - N/A   Clear
11:53 PM 59.0 °F 51.1 °F 75% 30.03 in 10.0 mi NE 16.1 mph - N/A   Scattered Clouds